Location: *
(46.4000°N, 12.6667°E)
Time: 18:09:25
(UTC+00:00)

Meteor 1-16 Rocket - Pass Details

Date: 09 April 2020
Orbit: 790 x 907 km, 81.2° (Epoch: 28 May)

Event Time Altitude Azimuth Distance (km) Brightness Sun altitude
Rises 18:30:19 0° 189° (S) 3,309 7.2 -7.6°
Reaches altitude 10° 18:32:39 10° 189° (S) 2,396 6.5 -8.0°
Maximum altitude 18:38:04 90° 207° (SSW) 838 4.2 -8.8°
Drops below altitude 10° 18:43:44 10° 11° (N) 2,489 6.8 -9.7°
Sets 18:46:12 0° 12° (NNE) 3,448 7.5 -10.1°
